Simultaneous Nadir Overpasses (SNOs) Predictions

Prediction of SNOs between METOP-B and NOAA-19 Satellite Orbit:

Table of predicted SNOs for the next 14.0 days since TLE Epoch: 4/3/2015
Index Date (METOP-B) Time (METOP-B) Lat,Lon (METOP-B) SZA (METOP-B ) Date (NOAA-19) Time (NOAA-19) Lat,Lon (NOAA-19) SZA (NOAA-19 ) Distance(km) Time Diff (sec)
1 04/09/2015 20:51:33 74.96,-135.37 67.20 04/09/2015 20:50:21 74.96,-136.57 67.22 34.42 72
2 04/09/2015 21:42:20 -74.73, 31.30 113.04 04/09/2015 21:41:22 -74.72, 31.34 113.04 0.96 58
3 04/09/2015 22:33:00 74.70,-161.44 66.92 04/09/2015 22:32:19 74.73,-161.42 66.96 3.58 41
4 04/09/2015 23:23:42 -74.71, 5.91 113.09 04/09/2015 23:23:24 -74.69, 5.93 113.11 2.37 18
5 04/10/2015 00:14:22 74.68, 173.17 66.88 04/10/2015 00:14:21 74.69, 173.18 66.89 1.51 1
6 04/10/2015 01:05:04 -74.69, -19.48 113.13 04/10/2015 01:05:27 -74.69, -19.60 113.13 3.65 23
7 04/10/2015 01:55:43 74.66, 147.78 66.83 04/10/2015 01:56:22 74.65, 147.78 66.82 0.59 39
8 04/10/2015 02:46:25 -74.67, -44.87 113.18 04/10/2015 02:47:28 -74.66, -45.00 113.19 4.03 63
9 04/10/2015 03:37:09 74.44, 121.87 66.60 04/10/2015 03:38:21 74.47, 122.77 66.61 27.17 72




NCC Satellite Simultaneous Nadir Overpasses (SNOs) Prediction Service
